Weather History for Okeechobee, FL

Change the Weather History Date:

Monday, May 28, 2012

  Actual Average Record
Temperature  
Mean Temperature 79 °F -  
Max Temperature 87 °F 86 °F 91 °F (1967)
Min Temperature 71 °F 69 °F 62 °F (1985)
Cooling Degree Days 14    
Growing Degree Days 29 (Base 50)    
Moisture  
Dew Point 71 °F    
Average Humidity 80    
Maximum Humidity 100    
Minimum Humidity 49    
Precipitation  
Precipitation 1.07 in - - ()
Sea Level Pressure  
Sea Level Pressure 29.94 in    
Wind  
Wind Speed 8 mph (South)    
Max Wind Speed 18 mph    
Max Gust Speed 26 mph    
Visibility 10 miles    
Events Rain , Thunderstorm    
Averages and records for this station are not official NWS values.
T = Trace of Precipitation, MM = Missing Value Source: NWS Daily Summary

Daily Weather History Graph

Daily Weather History Graph

Search for Another Location

Airport:

Trip Planner

Search our weather history database for the weather conditions in past years. The results will help you decide how hot, cold, wet, or windy it might be!

Date:

Astronomy

May. 28, 2012 Rise Set
Actual Time 6:29 AM EDT 8:12 PM EDT
Civil Twilight 6:03 AM EDT 8:38 PM EDT
Nautical Twilight 5:32 AM EDT 9:09 PM EDT
Astronomical Twilight 4:59 AM EDT 9:42 PM EDT
Moon 1:12 PM EDT (5/28) 1:11 AM EDT (5/28)
Length of Visible Light 14h 34m
Length of Day
13h 42m
Waxing Crescent, 48% of the Moon is Illuminated
May 28
Waxing Crescent
May 28
First Quarter
Jun 4
Full
Jun 11
Last Quarter
Jun 19
New

Hourly Weather History & Observations

Time (EDT) Temp. Heat Index Dew Point Humidity Pressure Visibility Wind Dir Wind Speed Gust Speed Precip Events Conditions
12:15 AM 73.4 °F - 73.4 °F 100% 29.91 in 10.0 mi South 9.2 mph - N/A   Clear
12:35 AM 75.2 °F - 73.4 °F 94% 29.91 in 10.0 mi SSW 8.1 mph - N/A   Clear
12:55 AM 75.2 °F - 73.4 °F 94% 29.91 in 10.0 mi South 6.9 mph - N/A   Scattered Clouds
1:15 AM 75.2 °F - 71.6 °F 89% 29.91 in 10.0 mi SSW 6.9 mph - N/A   Scattered Clouds
1:35 AM 73.4 °F - 71.6 °F 94% 29.91 in 10.0 mi SSW 8.1 mph - N/A   Clear
1:55 AM 73.4 °F - 71.6 °F 94% 29.90 in 10.0 mi South 8.1 mph - N/A   Clear
2:15 AM 73.4 °F - 71.6 °F 94% 29.90 in 10.0 mi South 9.2 mph - N/A   Clear
2:35 AM 73.4 °F - 71.6 °F 94% 29.90 in 10.0 mi SSW 9.2 mph - N/A   Scattered Clouds
2:55 AM 73.4 °F - 71.6 °F 94% 29.89 in 10.0 mi South 8.1 mph - N/A   Scattered Clouds
3:15 AM 73.4 °F - 71.6 °F 94% 29.89 in 10.0 mi South 8.1 mph - N/A   Scattered Clouds
3:35 AM 73.4 °F - 71.6 °F 94% 29.89 in 10.0 mi South 9.2 mph - N/A   Scattered Clouds
3:55 AM 73.4 °F - 71.6 °F 94% 29.89 in 10.0 mi South 10.4 mph - N/A   Overcast
4:15 AM 75.2 °F - 71.6 °F 89% 29.89 in 10.0 mi SSW 10.4 mph - N/A   Overcast
4:35 AM 75.2 °F - 71.6 °F 89% 29.89 in 10.0 mi SSW 9.2 mph - N/A   Scattered Clouds
4:55 AM 73.4 °F - 71.6 °F 94% 29.89 in 10.0 mi South 9.2 mph - N/A Thunderstorm Mostly Cloudy
5:15 AM 73.4 °F - 71.6 °F 94% 29.89 in 10.0 mi South 8.1 mph - N/A   Scattered Clouds
5:35 AM 73.4 °F - 71.6 °F 94% 29.89 in 10.0 mi South 9.2 mph - N/A   Clear
5:55 AM 73.4 °F - 71.6 °F 94% 29.90 in 10.0 mi South 6.9 mph - N/A   Clear
6:15 AM 73.4 °F - 71.6 °F 94% 29.91 in 10.0 mi South 6.9 mph - N/A   Clear
6:35 AM 73.4 °F - 71.6 °F 94% 29.91 in 10.0 mi South 4.6 mph - N/A   Clear
6:55 AM 73.4 °F - 71.6 °F 94% 29.92 in 10.0 mi South 4.6 mph - N/A   Clear
7:15 AM 73.4 °F - 71.6 °F 94% 29.94 in 10.0 mi South 3.5 mph - N/A   Clear
7:35 AM 75.2 °F - 73.4 °F 94% 29.94 in 10.0 mi South 6.9 mph - N/A   Clear
7:55 AM 77.0 °F - 73.4 °F 89% 29.95 in 10.0 mi South 8.1 mph - N/A   Clear
8:15 AM 78.8 °F - 73.4 °F 83% 29.96 in 10.0 mi South 8.1 mph - N/A   Clear
8:35 AM 78.8 °F - 71.6 °F 78% 29.96 in 10.0 mi South 12.7 mph - N/A   Scattered Clouds
8:55 AM 80.6 °F 84.6 °F 71.6 °F 74% 29.96 in 10.0 mi South 11.5 mph 16.1 mph N/A   Clear
9:15 AM 80.6 °F 84.6 °F 71.6 °F 74% 29.96 in 10.0 mi South 11.5 mph 18.4 mph N/A   Clear
9:35 AM 80.6 °F 85.4 °F 73.4 °F 79% 29.96 in 10.0 mi South 12.7 mph - N/A   Scattered Clouds
9:55 AM 82.4 °F 88.2 °F 73.4 °F 74% 29.96 in 10.0 mi South 12.7 mph 17.3 mph N/A   Mostly Cloudy
10:15 AM 82.4 °F 88.2 °F 73.4 °F 74% 29.96 in 10.0 mi South 10.4 mph - N/A   Scattered Clouds
10:35 AM 82.4 °F 86.3 °F 69.8 °F 66% 29.96 in 10.0 mi SSW 12.7 mph 18.4 mph N/A   Scattered Clouds
10:55 AM 82.4 °F 87.2 °F 71.6 °F 70% 29.96 in 10.0 mi South 11.5 mph - N/A   Scattered Clouds
11:15 AM 84.2 °F 89.6 °F 71.6 °F 66% 29.97 in 10.0 mi South 10.4 mph - N/A   Scattered Clouds
11:35 AM 84.2 °F 89.6 °F 71.6 °F 66% 29.97 in 10.0 mi South 11.5 mph - N/A   Clear
11:55 AM 84.2 °F 90.9 °F 73.4 °F 70% 29.97 in 10.0 mi SE 13.8 mph - N/A   Clear
12:15 PM 86.0 °F 91.8 °F 71.6 °F 62% 29.96 in 10.0 mi SSE 13.8 mph - N/A   Scattered Clouds
12:35 PM 86.0 °F 91.8 °F 71.6 °F 62% 29.95 in 10.0 mi SE 11.5 mph 20.7 mph N/A   Scattered Clouds
12:55 PM 86.0 °F 91.8 °F 71.6 °F 62% 29.95 in 10.0 mi SSE 11.5 mph 17.3 mph N/A   Scattered Clouds
1:15 PM 86.0 °F 90.4 °F 69.8 °F 58% 29.94 in 10.0 mi SSE 11.5 mph 16.1 mph N/A   Scattered Clouds
1:35 PM 80.6 °F 82.7 °F 66.2 °F 61% 29.97 in 10.0 mi WNW 9.2 mph 17.3 mph N/A Thunderstorm Thunderstorm
1:55 PM 75.2 °F - 69.8 °F 83% 30.01 in 7.0 mi SW 18.4 mph 26.5 mph 0.03 in Thunderstorm Thunderstorm
2:15 PM 71.6 °F - 68.0 °F 88% 29.97 in 0.8 mi Calm Calm - 1.01 in Rain , Thunderstorm Heavy Thunderstorms and Rain
2:35 PM 71.6 °F - 68.0 °F 88% 29.96 in 10.0 mi SSE 5.8 mph - 1.04 in Rain Light Rain
2:55 PM 73.4 °F - 69.8 °F 88% 29.94 in 10.0 mi SSE 4.6 mph - 1.04 in   Clear
3:15 PM 77.0 °F - 71.6 °F 83% 29.91 in 10.0 mi Calm Calm - N/A   Clear
3:35 PM 78.8 °F - 71.6 °F 78% 29.92 in 10.0 mi Calm Calm - N/A   Clear
3:55 PM 82.4 °F 86.3 °F 69.8 °F 66% 29.93 in 10.0 mi South 5.8 mph - N/A   Scattered Clouds
4:15 PM 87.8 °F 90.4 °F 66.2 °F 49% 29.93 in 10.0 mi South 13.8 mph - N/A   Mostly Cloudy
4:35 PM 87.8 °F 91.4 °F 68.0 °F 52% 29.92 in 10.0 mi SSW 9.2 mph - N/A   Mostly Cloudy
4:55 PM 86.0 °F 89.4 °F 68.0 °F 55% 29.91 in 10.0 mi South 8.1 mph - N/A   Clear
5:15 PM 86.0 °F 90.4 °F 69.8 °F 58% 29.92 in 10.0 mi SE 8.1 mph - N/A   Scattered Clouds
5:35 PM 86.0 °F 90.4 °F 69.8 °F 58% 29.92 in 10.0 mi SE 13.8 mph - N/A   Scattered Clouds
5:55 PM 84.2 °F 88.4 °F 69.8 °F 62% 29.92 in 10.0 mi SE 11.5 mph - N/A   Scattered Clouds
6:15 PM 82.4 °F 86.3 °F 69.8 °F 66% 29.92 in 10.0 mi SE 12.7 mph 17.3 mph N/A   Scattered Clouds
6:35 PM 80.6 °F 84.6 °F 71.6 °F 74% 29.94 in 10.0 mi SE 10.4 mph 17.3 mph N/A Thunderstorm Scattered Clouds
6:55 PM 78.8 °F - 68.0 °F 69% 29.96 in 10.0 mi West 9.2 mph - N/A Thunderstorm Thunderstorm
7:15 PM 78.8 °F - 68.0 °F 69% 29.96 in 10.0 mi Calm Calm - N/A Thunderstorm Thunderstorm
7:35 PM 77.0 °F - 69.8 °F 78% 29.96 in 10.0 mi ENE 3.5 mph - N/A   Overcast
7:55 PM 77.0 °F - 69.8 °F 78% 29.96 in 10.0 mi Calm Calm - N/A   Mostly Cloudy
8:15 PM 77.0 °F - 71.6 °F 83% 29.96 in 10.0 mi Calm Calm - N/A Thunderstorm Scattered Clouds
8:35 PM 77.0 °F - 71.6 °F 83% 29.97 in 10.0 mi South 3.5 mph - N/A   Mostly Cloudy
8:55 PM 77.0 °F - 69.8 °F 78% 29.97 in 10.0 mi SE 4.6 mph - N/A   Overcast
9:15 PM 77.0 °F - 71.6 °F 83% 29.97 in 10.0 mi Calm Calm - N/A   Mostly Cloudy
9:35 PM 77.0 °F - 71.6 °F 83% 29.97 in 10.0 mi Calm Calm - N/A   Scattered Clouds
9:55 PM 77.0 °F - 71.6 °F 83% 29.97 in 10.0 mi South 3.5 mph - N/A   Mostly Cloudy
10:15 PM 77.0 °F - 71.6 °F 83% 29.98 in 10.0 mi South 5.8 mph - N/A   Overcast
10:35 PM 77.0 °F - 71.6 °F 83% 29.98 in 10.0 mi South 4.6 mph - N/A   Mostly Cloudy
10:55 PM 77.0 °F - 71.6 °F 83% 29.98 in 10.0 mi SSE 5.8 mph - N/A   Mostly Cloudy
11:15 PM 77.0 °F - 71.6 °F 83% 29.98 in 10.0 mi SSE 4.6 mph - N/A   Mostly Cloudy
11:35 PM 77.0 °F - 71.6 °F 83% 29.98 in 10.0 mi SSE 6.9 mph - N/A   Mostly Cloudy
11:55 PM 77.0 °F - 69.8 °F 78% 29.98 in 10.0 mi SSE 4.6 mph - N/A   Mostly Cloudy